| time (UTC) | temp F | wind direction | speed knots | gust knots | rain 1hr in | rain 24hr in | rain mn in | humidity % | barometer mb |
| 20260502160235 | 65 | 97 | 4.3 | 8.7 | 0.00 | 0.02 | 0.02 | 57 | 1018.1 |
| 20260502123234 | 66 | 103 | 0.9 | 8.7 | 0.00 | 0.02 | 0.02 | 61 | 1020.1 |
| 20260502120734 | 65 | 78 | 4.3 | 8.7 | 0.00 | 0.02 | 0.02 | 63 | 1020.4 |
| 20260502120234 | 64 | 80 | 1.7 | 8.7 | 0.00 | 0.02 | 0.02 | 65 | 1020.6 |
| 20260502103734 | 60 | 48 | 1.7 | 7.8 | 0.00 | 0.02 | 0.02 | 79 | 1021.4 |
| 20260502100234 | 58 | 65 | 0.0 | 0.0 | 0.00 | 0.02 | 0.02 | 81 | 1022.0 |
| 20260502090234 | 58 | 49 | 0.0 | 0.0 | 0.00 | 0.02 | 0.02 | 83 | 1022.0 |
| 20260502070733 | 57 | 252 | 0.0 | 0.0 | 0.00 | 0.01 | 0.01 | 85 | 1021.8 |
| 20260502060734 | 56 | 258 | 0.0 | 0.0 | 0.01 | 0.01 | 0.01 | 85 | 1021.7 |
| 20260502060233 | 56 | 258 | 0.0 | 0.0 | 0.01 | 0.01 | 0.01 | 85 | 1021.7 |
| 20260502050233 | 55 | 238 | 0.0 | 0.0 | 0.00 | 0.00 | 0.00 | 84 | 1021.3 |
| 20260502043733 | 55 | 235 | 0.0 | 0.0 | 0.00 | 0.00 | 0.00 | 84 | 1021.1 |
| 20260502040733 | 55 | 236 | 0.0 | 0.0 | 0.00 | 0.00 | 0.00 | 84 | 1021.1 |
| 20260502033734 | 55 | 246 | 0.0 | 0.0 | 0.00 | 0.00 | 0.00 | 83 | 1021.2 |
| 20260502033233 | 55 | 246 | 0.0 | 0.0 | 0.00 | 0.00 | 0.00 | 83 | 1021.2 |
| 20260502023734 | 56 | 121 | 0.0 | 0.0 | 0.00 | 0.00 | 0.00 | 83 | 1021.2 |
| 20260502020733 | 56 | 90 | 0.0 | 0.0 | 0.00 | 0.00 | 0.00 | 83 | 1021.4 |
| 20260502013233 | 55 | 90 | 0.0 | 0.0 | 0.00 | 0.00 | 0.00 | 83 | 1021.5 |
| 20260502010733 | 55 | 90 | 0.0 | 0.0 | 0.00 | 0.00 | 0.00 | 83 | 1021.6 |
| 20260502010233 | 55 | 90 | 0.0 | 0.0 | 0.00 | 0.00 | 0.00 | 83 | 1021.6 |
| 20260502003733 | 56 | 90 | 0.0 | 0.0 | 0.00 | 0.00 | 0.00 | 82 | 1021.8 |
| 20260502003233 | 56 | 90 | 0.0 | 0.0 | 0.00 | 0.00 | 0.00 | 82 | 1021.9 |
| 20260502000732 | 57 | 188 | 0.0 | 0.0 | 0.00 | 0.00 | 0.00 | 82 | 1022.3 |
| 20260501233733 | 57 | 188 | 0.0 | 0.0 | 0.00 | 0.00 | 0.00 | 81 | 1022.4 |
| 20260501233233 | 57 | 188 | 0.0 | 0.0 | 0.00 | 0.00 | 0.00 | 81 | 1022.3 |
| 20260501230732 | 57 | 238 | 0.0 | 0.0 | 0.00 | 0.00 | 0.00 | 81 | 1022.3 |
| 20260501230233 | 57 | 238 | 0.0 | 0.0 | 0.00 | 0.00 | 0.00 | 80 | 1022.4 |
| 20260501223733 | 57 | 138 | 0.0 | 0.0 | 0.00 | 0.00 | 0.00 | 79 | 1022.2 |
| 20260501223232 | 58 | 138 | 0.0 | 0.0 | 0.00 | 0.00 | 0.00 | 79 | 1022.3 |
| 20260501220733 | 58 | 138 | 0.0 | 0.0 | 0.00 | 0.00 | 0.00 | 79 | 1022.2 |
| 20260501210732 | 60 | 247 | 0.0 | 0.0 | 0.00 | 0.00 | 0.00 | 77 | 1022.1 |
| 20260501203732 | 60 | 190 | 0.0 | 0.0 | 0.00 | 0.00 | 0.00 | 77 | 1022.1 |
| 20260501200733 | 61 | 194 | 0.0 | 0.0 | 0.00 | 0.00 | 0.00 | 74 | 1021.7 |
| 20260501183732 | 65 | 99 | 0.0 | 0.0 | 0.00 | 0.00 | 0.00 | 66 | 1020.7 |
| 20260501183232 | 65 | 98 | 0.0 | 0.0 | 0.00 | 0.00 | 0.00 | 65 | 1020.7 |
| 20260501173732 | 66 | 93 | 0.0 | 0.0 | 0.00 | 0.00 | 0.00 | 62 | 1020.4 |
| 20260501163232 | 68 | 117 | 2.6 | 8.7 | 0.00 | 0.00 | 0.00 | 60 | 1020.1 |